Location: Penton Mewsey
(51.2167°N, 1.5167°W)
Time: 13:55:19
(UTC+00:00)

ATLAS 2AS CENTAUR R/B - Pass Details

Date: 30 March 2020
Orbit: 929 x 1283 km, 63.7° (Epoch: 21 May)

Event Time Altitude Azimuth Distance (km) Brightness Sun altitude
Rises 19:58:38 0° 310° (NW) 4,234 7.4 -13.1°
Reaches altitude 10° 20:01:38 10° 316° (NW) 3,238 6.4 -13.6°
Maximum altitude 20:09:14 51° 31° (NNE) 1,479 3.4 -14.6°
Enters shadow 20:14:20 20° 99° (E) 2,404 4.0 -15.4°
